[[{"header":{"parameterUnit":"m.s-1","parameterCategory":1,"la1":30.2991,"la2":30.254,"lo1":-89.0895,"lo2":-89.0444,"dy":0.0017,"dx":0.0017,"nx":28,"ny":28,"refTime":"2024-07-04T21:00:00:Z","depth":0,"parameterNumber":2,"parameterNumberName":"U-component_of_WINDS"},"data":[0,0,0,0,0,0,0,0,0,0,0,0,0,0,0,0,0,0,0,0,0,0,0,0,0,0,0,0,0,0,0,0,0,0,0,0,0,0,0,0,0,0,0,0,0,0,0,0,0,0,0,0,0,0,0,0,0,0,1.2971,1.2972,0,1.3029,1.303,1.303,1.2996,1.2994,1.2992,1.2991,1.3052,1.3055,1.3059,0,0,0,0,0,0,0,0,0,0,0,0,0,1.2834,1.2837,1.2971,1.2972,1.2972,1.3029,1.303,1.303,1.2996,1.2994,1.2992,1.299,1.3051,1.3055,1.3059,0,0,0,0,0,0,0,0,0,0,0,0,0,1.2893,1.2838,1.2971,1.2962,1.2962,1.3029,1.303,1.3031,1.2996,1.2994,1.2991,1.2989,1.305,1.3055,1.3059,1.3139,0,0,1.3074,1.3076,0,0,0,0,0,0,0,0,1.289,1.2898,1.2962,1.2963,1.2962,1.3002,1.3004,1.3067,1.2997,1.2983,1.2991,1.2988,1.3038,1.3044,1.306,1.3142,1.3145,1.3075,1.3078,1.308,1.3081,0,0,0,0,0,0,0,1.2886,1.2896,1.2994,1.2963,1.2963,1.2956,1.2962,1.3016,1.3024,1.2984,1.2982,1.2989,1.3037,1.3056,1.3061,1.3146,1.3074,1.3079,1.3082,1.3084,1.33,1.3303,0,0,0,0,0,0,1.2882,1.2892,1.2992,1.2996,1.2919,1.2961,1.2967,1.2992,1.3023,1.3026,1.2991,1.2987,1.3049,1.3056,1.3063,1.3161,1.308,1.3084,1.3087,1.3297,1.3301,1.3304,0,0,0,0,0,0,1.2879,1.2891,1.299,1.2943,1.2955,1.2966,1.2994,1.2995,1.3013,1.3028,1.303,1.3008,1.3047,1.3057,1.3121,1.3163,1.3086,1.3091,1.3294,1.3299,1.3303,1.3357,0,0,0,0,0,0,1.2875,1.289,1.292,1.2944,1.2958,1.3046,1.2997,1.2998,1.3021,1.3016,1.3045,1.3047,1.3046,1.3114,1.3126,1.3168,1.3094,1.329,1.3296,1.3301,1.3351,1.3363,1.3372,0,0,0,0,0,1.2871,1.2932,1.2921,1.2934,1.2995,1.3048,1.3056,1.3053,1.3024,1.3055,1.3065,1.3046,1.3156,1.3121,1.3134,1.3178,1.3288,1.3294,1.3301,1.3347,1.336,1.3372,0,0,0,0,0,0,1.2913,1.2935,1.2923,1.2995,1.302,1.3042,1.308,1.3067,1.3101,1.3095,1.309,1.3097,1.3165,1.3178,1.3139,1.3259,1.3218,1.3227,1.3248,1.3261,1.3271,1.3268,1.3098,0,0,0,0,0,1.293,1.2971,1.2989,1.305,1.3063,1.307,1.3093,1.3088,1.3114,1.3125,1.314,1.3167,1.3208,1.3235,1.3273,1.3353,1.336,1.339,1.34,1.3408,1.3417,1.3463,1.3478,1.3325,1.3325,1.3325,0,0,1.2967,1.2984,1.301,1.3059,1.3078,1.3122,1.3079,1.3126,1.3159,1.3132,1.3195,1.3207,1.3237,1.3311,1.3344,1.3323,1.3461,1.3417,1.3423,1.3428,1.3472,1.3486,1.3499,1.333,1.3329,1.3328,0,0,1.3057,1.3073,1.3127,1.3147,1.3177,1.3181,1.3194,1.3219,1.3226,1.3289,1.3271,1.331,1.338,1.3403,1.3424,1.3525,1.351,1.3538,1.3592,1.3637,1.3649,1.366,1.3699,1.3713,1.3546,1.3546,1.3546,0,1.3099,1.3163,1.3157,1.3207,1.323,1.3207,1.3264,1.3284,1.3324,1.3342,1.3318,1.3408,1.3426,1.3506,1.3531,1.3547,1.3564,1.3535,1.3648,1.3659,1.3668,1.3706,1.372,1.355,1.3549,1.3549,1.3549,0,1.3215,1.326,1.3301,1.3341,1.3368,1.3421,1.3425,1.3454,1.3447,1.3455,1.3521,1.3542,1.3586,1.3604,1.3598,1.3684,1.3671,1.3648,1.3607,1.3687,1.3722,1.3735,1.3555,1.3553,1.3552,1.3552,0,0,1.3333,1.337,1.3385,1.3405,1.3436,1.3472,1.3524,1.3567,1.3593,1.3622,1.3668,1.3729,1.3708,1.3732,1.3729,1.3768,1.3851,1.374,1.3741,1.3762,1.3951,1.397,1.3986,1.384,1.3842,1.3845,1.3949,0,1.3427,1.3518,1.3515,1.3601,1.3645,1.3625,1.3671,1.3697,1.3706,1.3745,1.3755,1.3799,1.3767,1.3782,1.3819,1.3832,1.3889,1.3824,1.3885,1.3887,1.388,1.4004,1.4023,1.4121,1.3962,1.3965,1.3966,0,1.3548,1.3582,1.3672,1.37,1.3718,1.376,1.38,1.3837,1.3866,1.387,1.3898,1.3889,1.3945,1.3901,1.3979,1.3936,1.3961,1.3971,1.3975,1.3982,1.3933,1.4017,1.4151,1.4167,1.3987,1.3985,1.3984,0,1.3629,1.3696,1.376,1.3777,1.381,1.384,1.3856,1.3882,1.3909,1.3944,1.3962,1.4004,1.4027,1.4061,1.4064,1.4031,1.4144,1.41,1.4151,1.4152,1.4177,1.4176,1.4321,1.419,1.4189,1.4189,1.4189,0,1.3735,1.3792,1.3797,1.3836,1.39,1.3897,1.3961,1.3974,1.3998,1.4042,1.4026,1.4068,1.4068,1.4111,1.4114,1.418,1.419,1.4197,1.4197,1.42,1.4199,1.4217,1.4211,1.4193,1.4192,1.4191,1.4191,0,1.3836,1.3841,1.391,1.3936,1.3944,1.399,1.4014,1.4052,1.406,1.4115,1.4128,1.4141,1.419,1.4196,1.4254,1.4256,1.4337,1.4329,1.4327,1.4327,1.4379,1.4375,1.4542,1.4565,1.4417,1.4418,1.4419,0,1.3905,1.3948,1.3979,1.4007,1.4024,1.4068,1.4096,1.4095,1.4124,1.4163,1.4197,1.4245,1.4284,1.4364,1.438,1.4425,1.442,1.4475,1.4426,1.4428,1.4424,1.4423,1.4428,1.4485,1.4487,1.4488,1.4489,0,1.4027,1.4028,1.4067,1.4109,1.4142,1.4175,1.4206,1.4229,1.4233,1.4267,1.4318,1.4348,1.4407,1.4456,1.4501,1.4518,1.4506,1.4504,1.4519,1.4523,1.4521,1.4526,1.4356,1.4501,1.45,1.4499,1.4498,1.4498,1.4116,1.4155,1.4183,1.4229,1.4252,1.4281,1.432,1.4333,1.4374,1.4423,1.442,1.4477,1.4508,1.4566,1.4587,1.4633,1.4615,1.4635,1.4641,1.4647,1.4654,1.4512,1.4641,1.464,1.464,1.464,1.4639,0,1.424,1.4257,1.4299,1.4343,1.438,1.4363,1.4397,1.4429,1.4479,1.4508,1.4547,1.4606,1.4654,1.4674,1.4722,1.4755,1.475,1.4768,1.4766,1.4771,1.4666,1.4649,1.477,1.477,1.477,1.477,1.477,1.477,1.4309,1.4374,1.4379,1.4457,1.4475,1.453,1.4551,1.4579,1.4603,1.467,1.471,1.4722,1.4749,1.4798,1.4843,1.4847,1.4867,1.4887,1.489,1.4791,1.4778,1.4766,1.4751,1.4891,1.4891,1.4992,1.4993,1.4994]},{"header":{"parameterUnit":"m.s-1","parameterCategory":1,"la1":30.2991,"la2":30.254,"lo1":-89.0895,"lo2":-89.0444,"dy":0.0017,"dx":0.0017,"nx":28,"ny":28,"refTime":"2024-07-04T21:00:00:Z","depth":0,"parameterNumber":3,"parameterNumberName":"V-component_of_WINDS"},"data":[0,0,0,0,0,0,0,0,0,0,0,0,0,0,0,0,0,0,0,0,0,0,0,0,0,0,0,0,0,0,0,0,0,0,0,0,0,0,0,0,0,0,0,0,0,0,0,0,0,0,0,0,0,0,0,0,0,0,-2.2207,-2.2207,0,-2.22,-2.22,-2.22,-2.2193,-2.2193,-2.2193,-2.2193,-2.2183,-2.2183,-2.2182,0,0,0,0,0,0,0,0,0,0,0,0,0,-2.2215,-2.2215,-2.2207,-2.2207,-2.2207,-2.22,-2.22,-2.22,-2.2193,-2.2193,-2.2193,-2.2193,-2.2183,-2.2183,-2.2182,0,0,0,0,0,0,0,0,0,0,0,0,0,-2.221,-2.2215,-2.2207,-2.2203,-2.2203,-2.22,-2.22,-2.22,-2.2193,-2.2193,-2.2193,-2.2193,-2.2183,-2.2183,-2.2182,-2.2182,0,0,-2.2181,-2.2181,0,0,0,0,0,0,0,0,-2.221,-2.221,-2.2204,-2.2204,-2.2203,-2.2198,-2.2199,-2.2194,-2.2193,-2.2197,-2.2193,-2.2193,-2.2188,-2.2187,-2.2186,-2.2182,-2.2182,-2.2181,-2.2181,-2.2181,-2.2181,0,0,0,0,0,0,0,-2.2211,-2.221,-2.2204,-2.2204,-2.2203,-2.2201,-2.2201,-2.2198,-2.2193,-2.2196,-2.2196,-2.2195,-2.2187,-2.2186,-2.2185,-2.2181,-2.2181,-2.2181,-2.2181,-2.2181,-2.218,-2.218,0,0,0,0,0,0,-2.2212,-2.221,-2.2205,-2.2204,-2.2207,-2.2201,-2.22,-2.2199,-2.2193,-2.2192,-2.2195,-2.2195,-2.2187,-2.2186,-2.2185,-2.2186,-2.2181,-2.2181,-2.2181,-2.2179,-2.218,-2.218,0,0,0,0,0,0,-2.2212,-2.2211,-2.2205,-2.2207,-2.2206,-2.2201,-2.22,-2.2199,-2.2198,-2.2192,-2.2191,-2.2195,-2.2186,-2.2185,-2.2184,-2.2186,-2.2181,-2.218,-2.2179,-2.2179,-2.218,-2.2187,0,0,0,0,0,0,-2.2212,-2.2212,-2.2212,-2.2207,-2.2206,-2.2204,-2.22,-2.2199,-2.2198,-2.2197,-2.2191,-2.219,-2.2186,-2.2184,-2.2184,-2.2185,-2.218,-2.2179,-2.2179,-2.218,-2.2187,-2.2188,-2.2189,0,0,0,0,0,-2.2213,-2.2213,-2.2212,-2.2211,-2.2206,-2.2204,-2.2204,-2.22,-2.2198,-2.2198,-2.2195,-2.2191,-2.2186,-2.2184,-2.2183,-2.2185,-2.2179,-2.2179,-2.218,-2.2187,-2.2188,-2.2189,0,0,0,0,0,0,-2.2216,-2.2212,-2.2211,-2.221,-2.2208,-2.2203,-2.2203,-2.2201,-2.2198,-2.2198,-2.2192,-2.2191,-2.219,-2.2187,-2.2186,-2.2186,-2.2182,-2.2182,-2.2187,-2.2188,-2.2189,-2.219,-2.218,0,0,0,0,0,-2.2217,-2.2217,-2.2213,-2.2212,-2.2212,-2.2208,-2.2206,-2.2204,-2.2201,-2.22,-2.2196,-2.2193,-2.2191,-2.2189,-2.2187,-2.2187,-2.2186,-2.2187,-2.2188,-2.2189,-2.2189,-2.219,-2.2191,-2.2181,-2.2181,-2.2181,0,0,-2.2218,-2.2216,-2.2216,-2.2213,-2.2211,-2.2211,-2.2207,-2.2206,-2.2205,-2.2199,-2.2198,-2.2196,-2.2192,-2.2191,-2.2191,-2.2189,-2.2192,-2.2189,-2.219,-2.219,-2.2191,-2.2192,-2.2193,-2.2181,-2.2181,-2.2181,0,0,-2.2221,-2.2219,-2.2219,-2.2218,-2.2216,-2.2213,-2.2214,-2.221,-2.2209,-2.2208,-2.2204,-2.2203,-2.2199,-2.2197,-2.2196,-2.22,-2.2197,-2.2199,-2.2204,-2.2205,-2.2206,-2.2206,-2.2209,-2.221,-2.22,-2.22,-2.22,0,-2.2223,-2.2222,-2.2219,-2.222,-2.2219,-2.2215,-2.2216,-2.2214,-2.2211,-2.221,-2.2208,-2.2205,-2.2202,-2.2202,-2.2203,-2.2202,-2.2202,-2.22,-2.2206,-2.2207,-2.2207,-2.221,-2.2211,-2.22,-2.22,-2.22,-2.22,0,-2.2225,-2.2225,-2.2225,-2.2224,-2.2223,-2.2224,-2.2221,-2.2221,-2.2219,-2.2217,-2.2217,-2.2213,-2.2211,-2.2211,-2.2208,-2.2211,-2.221,-2.2207,-2.2203,-2.2209,-2.2211,-2.2212,-2.2201,-2.22,-2.22,-2.22,0,0,-2.2228,-2.2227,-2.2227,-2.2228,-2.2226,-2.2226,-2.2226,-2.2225,-2.2226,-2.2224,-2.2224,-2.2223,-2.2221,-2.2219,-2.2216,-2.2217,-2.2223,-2.2214,-2.2214,-2.2217,-2.2227,-2.223,-2.2231,-2.2221,-2.2221,-2.2221,-2.2228,0,-2.2231,-2.2232,-2.2231,-2.2233,-2.2233,-2.2231,-2.2232,-2.2231,-2.2229,-2.2229,-2.2228,-2.2227,-2.2224,-2.2223,-2.2224,-2.2222,-2.2225,-2.2221,-2.2221,-2.2221,-2.2223,-2.2232,-2.2234,-2.2241,-2.2229,-2.2229,-2.2229,0,-2.2234,-2.2234,-2.2237,-2.2237,-2.2237,-2.2237,-2.2238,-2.2238,-2.2237,-2.2236,-2.2236,-2.2233,-2.2234,-2.2231,-2.2232,-2.223,-2.223,-2.2229,-2.2229,-2.2229,-2.2226,-2.2233,-2.2242,-2.2244,-2.223,-2.223,-2.223,0,-2.2237,-2.2238,-2.224,-2.224,-2.224,-2.2241,-2.2241,-2.224,-2.224,-2.224,-2.2241,-2.224,-2.224,-2.224,-2.2238,-2.2235,-2.224,-2.2236,-2.224,-2.224,-2.224,-2.224,-2.2251,-2.224,-2.224,-2.224,-2.224,0,-2.224,-2.2242,-2.2242,-2.2243,-2.2246,-2.2244,-2.2246,-2.2246,-2.2246,-2.2247,-2.2244,-2.2246,-2.2243,-2.2243,-2.2242,-2.2244,-2.2243,-2.2243,-2.2243,-2.2243,-2.2244,-2.2243,-2.2243,-2.224,-2.224,-2.224,-2.224,0,-2.2244,-2.2244,-2.2246,-2.2247,-2.2247,-2.2249,-2.2249,-2.2251,-2.225,-2.2252,-2.2252,-2.2251,-2.2252,-2.225,-2.225,-2.2249,-2.2253,-2.2252,-2.2254,-2.2253,-2.2257,-2.2257,-2.2268,-2.227,-2.2257,-2.2258,-2.2258,0,-2.2246,-2.2248,-2.225,-2.2251,-2.2252,-2.2253,-2.2254,-2.2253,-2.2254,-2.2255,-2.2257,-2.2258,-2.2259,-2.2261,-2.226,-2.2261,-2.226,-2.2264,-2.226,-2.2261,-2.2261,-2.2261,-2.2262,-2.2264,-2.2264,-2.2265,-2.2265,0,-2.2251,-2.2251,-2.2253,-2.2256,-2.2257,-2.2259,-2.226,-2.2261,-2.2261,-2.2262,-2.2264,-2.2265,-2.2267,-2.2268,-2.227,-2.2269,-2.2267,-2.2266,-2.2267,-2.2268,-2.227,-2.227,-2.2257,-2.2266,-2.2266,-2.2266,-2.2265,-2.2265,-2.2254,-2.2256,-2.2258,-2.2261,-2.2263,-2.2265,-2.2266,-2.2267,-2.2269,-2.2271,-2.2271,-2.2273,-2.2274,-2.2276,-2.2276,-2.2278,-2.2276,-2.2277,-2.2278,-2.2278,-2.2279,-2.227,-2.2278,-2.2278,-2.2278,-2.2278,-2.2278,0,-2.2259,-2.2261,-2.2264,-2.2267,-2.2269,-2.2269,-2.2271,-2.2273,-2.2275,-2.2277,-2.2279,-2.2282,-2.2284,-2.2284,-2.2286,-2.2288,-2.2287,-2.2289,-2.2289,-2.2289,-2.228,-2.228,-2.229,-2.229,-2.229,-2.229,-2.229,-2.229,-2.2262,-2.2266,-2.2267,-2.2273,-2.2274,-2.2278,-2.2279,-2.2281,-2.2283,-2.2287,-2.2289,-2.229,-2.2291,-2.2294,-2.2296,-2.2296,-2.2297,-2.2299,-2.2299,-2.229,-2.2289,-2.2288,-2.2288,-2.2299,-2.2299,-2.2308,-2.2308,-2.2308]}]]